Weather Roundup
Issued by NWS

Home | Current Version | Previous Version | Text Only | Print | Product List | Glossary On
Versions: 1 2 3 4 5 6 7 8 9 10 11 12 13 14 15 16 17 18 19 20 21 22 23 24 25 26 27 28 29 30 31 32 33 34 35 36 37 38 39 40 41 42 43 44 45 46 47 48 49 50
894
NZUS93 KARX 280410
HRRWXR

CURRENT HOURLY OBSERVATIONS ACROSS
MUCH OF THE UPPER MISSISSIPPI VALLEY
NATIONAL WEATHER SERVICE LA CROSSE WI
1100 PM CDT MON MAR 27 2017


...SOUTHEAST MINNESOTA...


CITY           SKY/WX    TMP DP  RH WIND       PRES   REMARKS
ROCHESTER      CLEAR     40  38  93 NE3       30.01R
ROCHESTER/MAYO FAIR      42  40  91 CALM      30.02R
WINONA         CLEAR     37  36  93 CALM      30.02S
AUSTIN         CLEAR     41  37  87 CALM      30.01R
ALBERT LEA     CLEAR     37  36  93 CALM      30.01S
DODGE CENTER   CLEAR     37  36  93 CALM      30.01R FOG
PRESTON        PTCLDY    39  37  89 CALM      30.01S
OWATONNA       CLEAR     36  32  87 CALM      30.02R
FARIBAULT      CLEAR     36  36 100 CALM      30.02R
$$

...ELSEWHERE IN MINNESOTA...


CITY           SKY/WX    TMP DP  RH WIND       PRES   REMARKS
MINNEAPOLIS    CLEAR     47  36  65 CALM      30.02R
INTNL FALLS    CLOUDY    44  26  49 N6        30.02R
DULUTH         CLEAR     38  30  73 E3        30.02R
RED WING       CLEAR     36  34  93 CALM      30.02R
REDWOOD FALLS  PTCLDY    48  33  56 NE3       30.02R
MANKATO        CLEAR     43  39  86 S3        30.02R
WORTHINGTON    CLEAR     38  35  89 SW7       30.02R WCI  33
FAIRMONT       CLEAR     38  37  97 CALM      30.01S
$$

...SOUTHWEST WISCONSIN...


CITY           SKY/WX    TMP DP  RH WIND       PRES   REMARKS
LA CROSSE      CLOUDY    44  39  82 NW6       30.01S
PRAIRIE DU CHI CLOUDY    45  43  93 NW3       30.01R
BOSCOBEL       CLOUDY    47  44  90 N3        30.00R
LONE ROCK      CLOUDY    47  43  86 N5        30.00R
PLATTEVILLE    CLOUDY    46  46 100 CALM      29.99S
FORT MC COY    CLOUDY    42  39  90 N3        30.02R
CAMP DOUGLAS   CLOUDY    41  40  93 CALM      30.01R
MAUSTON-NEW LI CLOUDY    42  40  90 CALM      30.00R
VIROQUA        CLOUDY    42  42 100 CALM      30.00R
WIS DELLS      CLOUDY    43  41  95 NE3       30.00R FOG
$$

...ELSEWHERE IN WISCONSIN...


CITY           SKY/WX    TMP DP  RH WIND       PRES   REMARKS
MILWAUKEE      CLOUDY    39  36  89 N8        30.00R WCI  33
MADISON        CLOUDY    44  42  93 NE10      29.99R FOG
GREEN BAY      CLOUDY    39  38  96 CALM      30.01S
EAU CLAIRE     CLEAR     34  33  96 CALM      30.01R
BLACK RVR FLS  FAIR      32  32 100 CALM      30.01S
MEDFORD        FOG       31  31  99 CALM      30.00R VSB 1/2
WAUSAU         PTCLDY    33  33 100 CALM      30.00R
WIS RAPIDS     MOCLDY    39  39 100 CALM      30.01S
MARSHFIELD     CLEAR     36  34  92 CALM      29.99R
RICE LAKE      CLEAR     33  32  96 CALM      30.03R
$$

...NORTHEAST IOWA...


CITY           SKY/WX    TMP DP  RH WIND       PRES   REMARKS
WATERLOO       CLOUDY    45  41  86 NW5       30.00S
DUBUQUE        CLOUDY    46  44  93 N3        29.98S
DECORAH        CLOUDY    45  41  87 N5        29.99S
MASON CITY     PTCLDY    36  35  96 W3        30.02R FOG
CHARLES CITY   CLOUDY    45  45 100 CALM      30.01R
OELWEIN        CLOUDY    45  45 100 CALM      30.00S
$$

...ELSEWHERE IN IOWA...


CITY           SKY/WX    TMP DP  RH WIND       PRES   REMARKS
DES MOINES     CLOUDY    48  41  76 N5        30.01R
IOWA CITY      CLOUDY    50  46  86 N6        30.00R
FORT DODGE     CLEAR     39  34  81 NE3       30.01S
MARSHALLTOWN   CLOUDY    46  42  86 N3        30.00S
CEDAR RAPIDS   CLOUDY    47  46  97 NW3       29.99R
$$

...NORTHERN ILLINOIS...


CITY           SKY/WX    TMP DP  RH WIND       PRES   REMARKS
CHICAGO-OHARE  CLOUDY    42  36  79 NE9       29.98R
CHICAGO-MIDWAY CLOUDY    42  37  82 N9        29.98R
MOLINE         CLOUDY    50  45  83 N3        29.98R
ROCKFORD       CLOUDY    48  44  86 E6        30.00R
PEORIA         CLOUDY    52  49  89 N3        29.94S
$$

NOTE: "FAIR" INDICATES FEW OR NO CLOUDS BELOW 12,000 FEET WITH NO
SIGNIFICANT WEATHER AND/OR OBSTRUCTIONS TO VISIBILITY. WIND
SPEEDS ARE IN MILES-PER-HOUR.




USA.gov is the U.S. government's official web portal to all federal, state and local government web resources and services.